Location: Riverside Cemetery
(38.3047°N, 99.7773°W)
Time: 07:18:01
(UTC+00:00)

Cosmos 1707 Rocket - Pass Details

Date: 19 September 2020
Orbit: 606 x 630 km, 82.5° (Epoch: 19 October)

Event Time Altitude Azimuth Distance (km) Brightness Sun altitude
Exits shadow 11:26:52 - 202° (SSW) 2,763 6.6 -12.1°
Reaches altitude 10° 11:28:57 10° 209° (SSW) 1,948 5.7 -11.7°
Maximum altitude 11:33:02 42° 281° (W) 869 3.9 -10.9°
Drops below altitude 10° 11:37:10 10° 353° (N) 1,966 6.2 -10.1°
Sets 11:39:30 0° 0° (N) 2,877 7.1 -9.7°
